EW4271 Weather Reports


time (UTC)temp
F
wind
direction
speed
knots
gust
knots
rain 1hr
in
rain 24hr
in
rain mn
in
humidity
%
barometer
mb
20260505083628 52 89 0.0 3.5 0.00 0.00 0.00 40 1015.1
20260505083123 52 74 1.7 7.0 0.00 0.00 0.00 39 1015.2
20260505082636 52 203 1.7 7.8 0.00 0.00 0.00 39 1015.1
20260505082131 52 57 2.6 7.8 0.00 0.00 0.00 39 1015.0
20260505081625 53 360 2.6 7.0 0.00 0.00 0.00 39 1015.3
20260505081139 53 177 2.6 7.0 0.00 0.00 0.00 38 1015.3
20260505080653 53 67 2.6 7.0 0.00 0.00 0.00 38 1015.5
20260505080126 53 286 1.7 7.8 0.00 0.00 0.00 38 1015.7
20260505075625 53 286 3.5 7.8 0.00 0.00 0.00 37 1015.5
20260505075139 53 233 2.6 3.5 0.00 0.00 0.00 37 1015.4
20260505074632 53 71 0.0 5.2 0.00 0.00 0.00 36 1015.4
20260505074127 54 277 1.7 5.2 0.00 0.00 0.00 36 1015.6
20260505073701 54 47 2.6 10.4 0.00 0.00 0.00 35 1015.6
20260505073134 54 350 3.5 10.4 0.00 0.00 0.00 36 1015.6
20260505072627 54 316 1.7 7.8 0.00 0.00 0.00 35 1015.4
20260505072122 54 5 2.6 4.3 0.00 0.00 0.00 35 1015.2
20260505071640 54 333 2.6 5.2 0.00 0.00 0.00 34 1015.2
20260505071133 54 70 2.6 5.2 0.00 0.00 0.00 34 1015.2
20260505070627 54 360 2.6 5.2 0.00 0.00 0.00 34 1015.2
20260505070140 54 355 1.7 5.2 0.00 0.00 0.00 34 1015.2
20260505065635 55 114 1.7 5.2 0.00 0.00 0.00 34 1015.3
20260505065128 55 22 0.9 9.6 0.00 0.00 0.00 33 1015.3
20260505064623 55 79 3.5 9.6 0.00 0.00 0.00 33 1015.2
20260505064136 55 257 1.7 5.2 0.00 0.00 0.00 33 1015.2
20260505063635 55 53 2.6 11.3 0.00 0.00 0.00 32 1015.2
20260505063127 55 5 4.3 11.3 0.00 0.00 0.00 32 1015.1
20260505062622 55 355 2.6 4.3 0.00 0.00 0.00 33 1015.2
20260505062135 55 47 0.9 3.5 0.00 0.00 0.00 33 1015.2
20260505061630 55 292 1.7 4.3 0.00 0.00 0.00 32 1015.2
20260505061122 56 237 0.9 4.3 0.00 0.00 0.00 31 1015.4
20260505060636 56 35 0.9 2.6 0.00 0.00 0.00 32 1015.4
20260505060130 56 79 0.9 7.8 0.00 0.00 0.00 32 1015.2
20260505055627 56 240 2.6 7.8 0.00 0.00 0.00 32 1015.0
20260505055201 56 228 1.7 6.1 0.00 0.00 0.00 34 1015.1
20260505054634 55 272 0.0 2.6 0.00 0.00 0.00 37 1015.2
20260505054126 55 300 1.7 4.3 0.00 0.00 0.00 37 1015.3
20260505053641 56 298 1.7 4.3 0.00 0.00 0.00 38 1015.0
20260505053135 56 161 0.0 2.6 0.00 0.00 0.00 36 1015.1
20260505052628 56 161 0.9 2.6 0.00 0.00 0.00 36 1014.9
20260505052122 56 161 0.0 2.6 0.00 0.00 0.00 37 1014.9
20260505051636 57 161 1.7 2.6 0.00 0.00 0.00 35 1014.8
20260505051134 57 136 0.0 0.0 0.00 0.00 0.00 36 1014.7
20260505050626 58 136 0.0 0.0 0.00 0.00 0.00 35 1014.8
20260505050139 58 142 0.0 0.0 0.00 0.00 0.00 35 1014.8
20260505041624 58 261 0.9 5.2 0.00 0.00 0.00 32 1014.8
20260505041158 58 207 0.9 5.2 0.00 0.00 0.00 33 1014.7
20260505040630 58 146 0.9 5.2 0.00 0.00 0.00 32 1014.7
20260505040125 58 232 2.6 5.2 0.00 0.00 0.00 32 1014.6
20260505035638 58 134 0.9 1.7 0.00 0.00 0.00 32 1014.8
20260505035132 59 134 0.9 4.3 0.00 0.00 0.00 32 1014.9
20260505034626 59 140 0.9 4.3 0.00 0.00 0.00 31 1014.7
20260505034159 59 90 1.7 4.3 0.00 0.00 0.00 31 1014.7
20260505033637 58 163 0.9 3.5 0.00 0.00 0.00 31 1014.6
20260505033152 59 207 0.9 2.6 0.00 0.00 0.00 30 1014.6
20260505032625 59 149 0.9 5.2 0.00 0.00 0.00 30 1014.6
20260505032138 59 50 0.9 5.2 0.00 0.00 0.00 30 1014.6
20260505031652 59 48 2.6 4.3 0.00 0.00 0.00 30 1014.5
20260505031125 59 302 0.9 3.5 0.00 0.00 0.00 30 1014.5
20260505030638 59 63 0.9 5.2 0.00 0.00 0.00 29 1014.4
20260505030130 59 69 0.0 2.6 0.00 0.00 0.00 29 1014.4
20260505025644 59 83 0.9 3.5 0.00 0.00 0.00 29 1014.5
20260505025138 59 232 0.9 3.5 0.00 0.00 0.00 28 1014.5
20260505024630 59 103 0.9 7.0 0.00 0.00 0.00 28 1014.5
20260505024127 59 232 0.9 3.5 0.00 0.00 0.00 28 1014.2
20260505023639 59 146 0.9 7.0 0.00 0.00 0.00 28 1014.1
20260505023132 59 49 2.6 7.0 0.00 0.00 0.00 28 1014.3
20260505022646 60 61 0.9 2.6 0.00 0.00 0.00 26 1014.2
20260505022158 60 45 0.9 2.6 0.00 0.00 0.00 26 1014.2
20260505021629 60 144 0.9 2.6 0.00 0.00 0.00 26 1014.0
20260505021123 60 171 1.7 3.5 0.00 0.00 0.00 25 1014.1
20260505020637 60 53 0.9 5.2 0.00 0.00 0.00 25 1014.1
20260505020129 61 209 2.6 4.3 0.00 0.00 0.00 25 1014.2
20260505015644 61 88 0.9 3.5 0.00 0.00 0.00 24 1014.2
20260505015158 61 355 1.7 2.6 0.00 0.00 0.00 23 1014.1
20260505014634 61 177 0.9 4.3 0.00 0.00 0.00 23 1014.1
20260505014127 61 219 1.7 4.3 0.00 0.00 0.00 24 1014.0
20260505013701 62 302 1.7 4.3 0.00 0.00 0.00 23 1013.9
20260505013134 62 59 1.7 7.0 0.00 0.00 0.00 23 1013.9
20260505012628 62 276 0.9 7.0 0.00 0.00 0.00 22 1013.9
20260505012122 62 78 0.0 3.5 0.00 0.00 0.00 22 1013.8
20260505011636 62 42 1.7 3.5 0.00 0.00 0.00 22 1013.8
20260505011131 63 213 1.7 6.1 0.00 0.00 0.00 21 1013.7
20260505010628 63 194 0.9 8.7 0.00 0.00 0.00 21 1013.7
20260505010143 63 306 1.7 8.7 0.00 0.00 0.00 21 1013.8
20260505005635 63 273 2.6 8.7 0.00 0.00 0.00 20 1013.8
20260505005129 63 66 1.7 4.3 0.00 0.00 0.00 19 1013.9
20260505004622 64 316 2.6 4.3 0.00 0.00 0.00 19 1013.9
20260505004136 64 337 0.0 4.3 0.00 0.00 0.00 19 1014.0
20260505003629 64 355 2.6 4.3 0.00 0.00 0.00 19 1013.9
20260505003144 64 140 1.7 6.1 0.00 0.00 0.00 19 1014.0
20260505002636 64 22 0.9 4.3 0.00 0.00 0.00 20 1014.0
20260505002133 64 305 1.7 8.7 0.00 0.00 0.00 19 1014.0
20260505001628 64 307 1.7 5.2 0.00 0.00 0.00 18 1013.9
20260505001141 64 302 0.9 4.3 0.00 0.00 0.00 20 1013.9
20260505000655 64 279 1.7 5.2 0.00 0.00 0.00 19 1013.9
20260505000127 64 90 0.9 9.6 0.00 0.00 0.00 19 1014.0
20260504235641 64 290 3.5 9.6 0.00 0.00 0.00 18 1014.0
20260504235134 64 40 3.5 7.8 0.00 0.00 0.00 19 1014.0
20260504234649 64 146 1.7 9.6 0.00 0.00 0.00 20 1013.9
20260504234121 64 290 3.5 9.6 0.00 0.00 0.00 19 1014.1
20260504233656 64 238 2.6 7.8 0.00 0.00 0.00 20 1014.1
20260504233132 64 312 2.6 7.8 0.00 0.00 0.00 20 1014.1
20260504232625 65 306 3.5 7.8 0.00 0.00 0.00 19 1014.0
20260504232138 65 40 2.6 7.0 0.00 0.00 0.00 21 1014.1
20260504231632 65 332 2.6 7.8 0.00 0.00 0.00 20 1014.0
20260504231127 65 334 1.7 7.8 0.00 0.00 0.00 20 1014.0
20260504230639 65 42 1.7 6.1 0.00 0.00 0.00 20 1014.1
20260504230131 65 226 1.7 7.8 0.00 0.00 0.00 21 1014.2
20260504225624 65 213 2.6 8.7 0.00 0.00 0.00 21 1014.4
20260504225136 65 342 3.5 9.6 0.00 0.00 0.00 21 1014.5
20260504224633 66 203 2.6 7.8 0.00 0.00 0.00 21 1014.3
20260504224126 65 249 1.7 9.6 0.00 0.00 0.00 21 1014.5
20260504223700 66 360 3.5 9.6 0.00 0.00 0.00 20 1014.5
20260504223132 65 18 3.5 7.0 0.00 0.00 0.00 21 1014.6
20260504222626 65 5 2.6 7.0 0.00 0.00 0.00 20 1014.7
20260504222139 65 294 2.6 7.8 0.00 0.00 0.00 20 1014.7
20260504221652 65 22 1.7 7.8 0.00 0.00 0.00 21 1014.8
20260504221125 65 340 1.7 7.8 0.00 0.00 0.00 20 1014.8
20260504220623 65 344 1.7 6.1 0.00 0.00 0.00 20 1014.8
20260504220136 65 306 2.6 5.2 0.00 0.00 0.00 20 1014.9
20260504215647 65 159 1.7 5.2 0.00 0.00 0.00 21 1015.0
20260504215200 64 229 0.9 7.8 0.00 0.00 0.00 20 1014.9
20260504214653 64 29 3.5 7.8 0.00 0.00 0.00 19 1015.0
20260504214126 64 40 3.5 8.7 0.00 0.00 0.00 20 1015.1
20260504213700 64 55 5.2 8.7 0.00 0.00 0.00 19 1015.2
20260504213132 64 103 2.6 9.6 0.00 0.00 0.00 19 1015.4
20260504212626 65 98 4.3 8.7 0.00 0.00 0.00 19 1015.4
20260504212201 64 360 3.5 10.4 0.00 0.00 0.00 18 1015.5
20260504211634 64 78 3.5 10.4 0.00 0.00 0.00 18 1015.5
20260504211132 64 63 2.6 5.2 0.00 0.00 0.00 17 1015.6
20260504210626 65 38 2.6 5.2 0.00 0.00 0.00 18 1015.6
20260504210140 65 271 2.6 5.2 0.00 0.00 0.00 17 1015.9
20260504205634 64 111 2.6 5.2 0.00 0.00 0.00 17 1015.9
20260504205128 64 304 1.7 7.8 0.00 0.00 0.00 18 1016.0
20260504204621 64 273 3.5 7.8 0.00 0.00 0.00 16 1016.0
20260504204135 64 58 1.7 8.7 0.00 0.00 0.00 16 1016.0
20260504203629 64 186 3.5 8.7 0.00 0.00 0.00 16 1016.0
20260504203146 65 230 1.7 6.1 0.00 0.00 0.00 16 1016.2
20260504202700 64 306 2.6 9.6 0.00 0.00 0.00 16 1016.3
20260504202133 64 333 3.5 9.6 0.00 0.00 0.00 16 1016.4
20260504201626 64 322 4.3 7.0 0.00 0.00 0.00 17 1016.5
20260504201200 65 355 2.6 8.7 0.00 0.00 0.00 16 1016.4
20260504200654 65 274 1.7 8.7 0.00 0.00 0.00 17 1016.3
20260504200125 65 126 2.6 7.8 0.00 0.00 0.00 17 1016.3
20260504195700 65 34 1.7 7.0 0.00 0.00 0.00 18 1016.2
20260504195132 65 223 1.7 9.6 0.00 0.00 0.00 18 1016.3
20260504194626 64 305 3.5 10.4 0.00 0.00 0.00 18 1016.2
20260504194123 65 94 6.1 10.4 0.00 0.00 0.00 18 1016.5
20260504193637 65 70 1.7 8.7 0.00 0.00 0.00 18 1016.5
20260504193151 64 275 1.7 8.7 0.00 0.00 0.00 18 1016.6
20260504192624 64 24 4.3 8.7 0.00 0.00 0.00 17 1016.6
20260504192139 65 115 2.6 7.8 0.00 0.00 0.00 18 1016.6
20260504191633 65 343 1.7 7.8 0.00 0.00 0.00 21 1016.6
20260504191126 65 78 1.7 5.2 0.00 0.00 0.00 22 1016.6
20260504190640 64 50 3.5 5.2 0.00 0.00 0.00 23 1016.5
20260504190134 64 307 2.6 6.1 0.00 0.00 0.00 23 1016.7
20260504185651 64 355 1.7 4.3 0.00 0.00 0.00 24 1016.4
20260504185125 64 250 2.6 6.1 0.00 0.00 0.00 24 1016.6
20260504184638 63 52 0.9 8.7 0.00 0.00 0.00 24 1016.6
20260504184132 63 25 3.5 8.7 0.00 0.00 0.00 24 1016.9
20260504183625 63 221 3.5 5.2 0.00 0.00 0.00 22 1017.0
20260504183137 63 68 0.9 5.2 0.00 0.00 0.00 23 1016.8
20260504182630 63 254 2.6 7.0 0.00 0.00 0.00 24 1017.0
20260504182145 63 309 1.7 7.0 0.00 0.00 0.00 23 1017.1
20260504181637 63 67 3.5 6.1 0.00 0.00 0.00 23 1017.1
20260504181152 63 132 1.7 6.1 0.00 0.00 0.00 23 1017.3
20260504180628 63 296 2.6 8.7 0.00 0.00 0.00 23 1017.6
20260504180143 63 335 3.5 8.7 0.00 0.00 0.00 23 1017.5
20260504175635 63 42 2.6 7.8 0.00 0.00 0.00 23 1017.4
20260504175129 62 350 1.7 7.0 0.00 0.00 0.00 24 1017.6
20260504174623 62 211 2.6 7.0 0.00 0.00 0.00 23 1017.5
20260504174137 62 125 1.7 4.3 0.00 0.00 0.00 26 1017.7
20260504173630 62 312 1.7 7.0 0.00 0.00 0.00 27 1017.7
20260504173145 61 333 1.7 7.0 0.00 0.00 0.00 29 1017.7
20260504172638 61 86 1.7 3.5 0.00 0.00 0.00 29 1017.7
20260504172135 61 306 0.9 3.5 0.00 0.00 0.00 30 1017.7
20260504171628 60 326 0.9 3.5 0.00 0.00 0.00 32 1017.9
20260504171123 60 284 0.9 3.5 0.00 0.00 0.00 31 1017.8
20260504170636 60 60 1.7 4.3 0.00 0.00 0.00 31 1017.7
20260504170129 60 22 1.7 3.5 0.00 0.00 0.00 32 1017.8
20260504160122 59 61 1.7 7.0 0.00 0.00 0.00 37 1018.1
20260504151123 56 17 1.7 7.8 0.00 0.00 0.00 42 1018.5
20260504150636 55 343 3.5 7.8 0.00 0.00 0.00 42 1018.5
20260504150130 55 36 2.6 6.1 0.00 0.00 0.00 42 1018.5
20260504141152 50 134 0.0 0.0 0.00 0.00 0.00 60 1018.5
20260504140624 48 260 0.0 6.1 0.00 0.00 0.00 63 1018.6
20260504140158 47 333 0.0 6.1 0.00 0.00 0.00 70 1018.5
20260504130650 43 168 0.0 0.0 0.00 0.00 0.00 77 1018.2
20260504130127 43 168 0.0 0.0 0.00 0.00 0.00 77 1018.4
20260504120138 44 168 0.0 0.0 0.00 0.00 0.00 75 1017.8
20260504110636 45 168 0.0 0.0 0.00 0.00 0.00 74 1017.6
20260504110134 45 168 0.0 0.0 0.00 0.00 0.00 73 1017.6
20260504100122 48 168 0.0 0.0 0.00 0.00 0.00 68 1017.9
20260504090132 51 140 2.6 4.3 0.00 0.00 0.00 60 1017.6